Weather Roundup
Issued by NWS

Home | Current Version | Previous Version | Graphics & Text | Print | Product List | Glossary Off
Versions: 1 2 3 4 5 6 7 8 9 10 11 12 13 14 15 16 17 18 19 20 21 22 23 24 25 26 27 28 29 30 31 32 33 34 35 36 37 38 39 40 41 42 43 44 45 46 47 48 49 50

000
NZUS93 KARX 291610
HRRWXR

CURRENT HOURLY OBSERVATIONS ACROSS
MUCH OF THE UPPER MISSISSIPPI VALLEY
NATIONAL WEATHER SERVICE LA CROSSE WI
1100 AM CDT WED JUL 29 2015


...SOUTHEAST MINNESOTA...


CITY           SKY/WX    TMP DP  RH WIND       PRES   REMARKS
ROCHESTER      SUNNY     73  56  54 W22G30    30.02S
ROCHESTER/MAYO FAIR      74  51  44 W16G30    30.00F
WINONA         SUNNY     77  50  38 NW10G23   29.96F
AUSTIN         SUNNY     75  52  43 W18G25    30.04S
ALBERT LEA     SUNNY     75  54  46 W12G18    30.05S
DODGE CENTER   SUNNY     73  54  49 W16G25    30.02S
PRESTON        SUNNY     74  53  48 W22G28    30.02S
OWATONNA       SUNNY     75  55  50 W17       30.02S
FARIBAULT      SUNNY     75  55  50 SW18      30.01S
$$

...ELSEWHERE IN MINNESOTA...


CITY           SKY/WX    TMP DP  RH WIND       PRES   REMARKS
MINNEAPOLIS    SUNNY     77  52  41 SW23G32   29.94S
INTNL FALLS    LGT RAIN  63  57  81 W16G23    29.59R
DULUTH         CLOUDY    67  52  58 W26G38    29.75R
RED WING       SUNNY     81  52  36 W14       29.94S
REDWOOD FALLS  SUNNY     76  53  44 W18G30    30.00F
MANKATO        SUNNY     75  55  50 W20G28    30.02S
WORTHINGTON    SUNNY     72  54  53 W16       30.12R
FAIRMONT       SUNNY     75  52  43 W15       30.08R
$$

...SOUTHWEST WISCONSIN...


CITY           SKY/WX    TMP DP  RH WIND       PRES   REMARKS
LA CROSSE      SUNNY     79  51  37 W15G23    29.97S
PRAIRIE DU CHI SUNNY     80  47  31 W14       30.01S
BOSCOBEL       SUNNY     81  55  40 W9G17     30.01R
LONE ROCK      SUNNY     79  53  40 W13       30.00R
PLATTEVILLE    SUNNY     77  58  51 W12G18    30.03S
FORT MC COY    SUNNY     77  48  35 W15G22    29.97F
CAMP DOUGLAS   SUNNY     77  54  44 W18G32    29.96S
VIROQUA        FAIR      75  52  43 W15       30.01S
WIS DELLS      SUNNY     80  44  28 W13G25    29.97F
$$

...ELSEWHERE IN WISCONSIN...


CITY           SKY/WX    TMP DP  RH WIND       PRES   REMARKS
MILWAUKEE      PTSUNNY   81  57  43 NW18G25   29.95R
MADISON        PTSUNNY   78  51  38 NW10G23   29.98S
GREEN BAY      MOSUNNY   79  51  37 W20G29    29.88F
EAU CLAIRE     SUNNY     77  50  38 W21G35    29.91F
BLACK RVR FLS  FAIR      77  48  35 W16G22    29.95S
MEDFORD        SUNNY     71  52  50 W21G29    29.89F
WAUSAU         SUNNY     76  50  40 W28G36    29.88F
WIS RAPIDS     SUNNY     78  48  34 W21G29    29.94F
MARSHFIELD     SUNNY     76  50  40 W18G28    29.92F
RICE LAKE      SUNNY     72  52  48 W22G31    29.90S
$$

...NORTHEAST IOWA...


CITY           SKY/WX    TMP DP  RH WIND       PRES   REMARKS
DECORAH        SUNNY     75  54  46 W9G17     30.02S
MASON CITY     SUNNY     78  56  46 W21G26    30.08S
CHARLES CITY   SUNNY     75  55  50 NW17G25   30.06S
OELWEIN        SUNNY     77  55  47 NW14G20   30.07S
$$

...ELSEWHERE IN IOWA...


CITY           SKY/WX    TMP DP  RH WIND       PRES   REMARKS
DES MOINES     PTSUNNY   81  52  36 NW15      30.11S
IOWA CITY      SUNNY     81  58  45 NW12      30.08R
FORT DODGE     MOSUNNY   77  57  50 W7        30.13R
$$

...NORTHERN ILLINOIS...


CITY           SKY/WX    TMP DP  RH WIND       PRES   REMARKS
CHICAGO-OHARE  PTSUNNY   82  66  58 NW13      29.98R
CHICAGO-MIDWAY CLOUDY    83  72  69 NW12      29.97R
MOLINE         SUNNY     82  59  45 N9G17     30.05R
ROCKFORD       PTSUNNY   80  56  43 NW16      30.03R
PEORIA         MOSUNNY   83  68  60 N8        30.03R
$$

NOTE: "FAIR" INDICATES FEW OR NO CLOUDS BELOW 12,000 FEET WITH NO
SIGNIFICANT WEATHER AND/OR OBSTRUCTIONS TO VISIBILITY. WIND
SPEEDS ARE IN MILES-PER-HOUR.



USA.gov is the U.S. government's official web portal to all federal, state and local government web resources and services.